Weather History for Salida, CO

Change the Weather History Date:

Wednesday, March 20, 2013

  Actual Average (KGUC) Record (KGUC)
Temperature  
Mean Temperature 36 °F -  
Max Temperature 54 °F 46 °F 66 °F (2004)
Min Temperature 17 °F 18 °F 1 °F (2008)
Degree Days  
Heating Degree Days 30    
Moisture  
Dew Point 11 °F    
Average Humidity 37    
Maximum Humidity 51    
Minimum Humidity 16    
Precipitation  
Precipitation 0.00 in - - ()
Sea Level Pressure  
Sea Level Pressure 30.15 in    
Wind  
Wind Speed 7 mph (WSW)    
Max Wind Speed 25 mph    
Max Gust Speed 40 mph    
Visibility 10 miles    
Events      
Averages and records for this station are not official NWS values.
T = Trace of Precipitation, MM = Missing Value Source: NWS Daily Summary

Daily Weather History Graph

Daily Weather History Graph

Search for Another Location

Airport:

Trip Planner

Search our weather history database for the weather conditions in past years. The results will help you decide how hot, cold, wet, or windy it might be!

Date:

Astronomy

Mar. 20, 2013 Rise Set
Actual Time 7:07 AM MDT 7:16 PM MDT
Civil Twilight 6:40 AM MDT 7:42 PM MDT
Nautical Twilight 6:09 AM MDT 8:13 PM MDT
Astronomical Twilight 5:38 AM MDT 8:45 PM MDT
Moon 12:57 PM MDT (3/20) 2:45 AM MDT (3/20)
Length of Visible Light 13h 02m
Length of Day
12h 09m
First Quarter, 60% of the Moon is Illuminated
Mar 20
First Quarter
Mar 27
Full
Apr 2
Last Quarter
Apr 10
New
Apr 18
First Quarter

Hourly Weather History & Observations

Time (MDT) Temp. Windchill Dew Point Humidity Pressure Visibility Wind Dir Wind Speed Gust Speed Precip Events Conditions
12:15 AM 26.4 °F - 3.4 °F 37% 30.33 in 10.0 mi Calm Calm - N/A   Clear
12:35 AM 25.3 °F 19.7 °F 2.5 °F 37% 30.33 in 10.0 mi SSW 4.6 mph - N/A   Clear
12:55 AM 26.8 °F 21.4 °F 1.0 °F 33% 30.33 in 10.0 mi West 4.6 mph - N/A   Clear
1:15 AM 25.5 °F - 3.4 °F 39% 30.34 in 10.0 mi Calm Calm - N/A   Clear
1:35 AM 23.7 °F - 3.2 °F 41% 30.34 in 10.0 mi Calm Calm - N/A   Clear
1:55 AM 23.4 °F 15.2 °F 4.5 °F 44% 30.34 in 10.0 mi WSW 6.9 mph - N/A   Clear
2:15 AM 24.6 °F 18.8 °F 3.2 °F 40% 30.34 in 10.0 mi West 4.6 mph - N/A   Clear
2:35 AM 23.0 °F 18.4 °F 4.8 °F 46% 30.34 in 10.0 mi WNW 3.5 mph - N/A   Clear
2:55 AM 22.6 °F - 3.9 °F 45% 30.33 in 10.0 mi Calm Calm - N/A   Clear
3:15 AM 22.3 °F 16.1 °F 4.1 °F 46% 30.32 in 10.0 mi WSW 4.6 mph - N/A   Clear
3:35 AM 22.1 °F 17.4 °F 2.7 °F 43% 30.32 in 10.0 mi WSW 3.5 mph - N/A   Clear
3:55 AM 21.0 °F - 2.7 °F 45% 30.31 in 10.0 mi Calm Calm - N/A   Clear
4:15 AM 21.2 °F - 2.1 °F 44% 30.31 in 10.0 mi Calm Calm - N/A   Clear
4:35 AM 19.9 °F - 0.7 °F 43% 30.31 in 10.0 mi Calm Calm - N/A   Clear
4:55 AM 19.4 °F - 0.7 °F 44% 30.31 in 10.0 mi Calm Calm - N/A   Clear
5:15 AM 19.9 °F - 0.5 °F 43% 30.31 in 10.0 mi Calm Calm - N/A   Clear
5:35 AM 18.9 °F - 0.5 °F 45% 30.31 in 10.0 mi Calm Calm - N/A   Clear
5:55 AM 19.6 °F - -0.4 °F 42% 30.31 in 10.0 mi Calm Calm - N/A   Clear
6:15 AM 18.3 °F - -0.6 °F 44% 30.31 in 10.0 mi Calm Calm - N/A   Clear
6:35 AM 18.3 °F - -0.6 °F 44% 30.30 in 10.0 mi Calm Calm - N/A   Clear
6:55 AM 18.5 °F 13.3 °F -0.8 °F 43% 30.30 in 10.0 mi NW 3.5 mph - N/A   Clear
7:15 AM 19.2 °F - -0.4 °F 42% 30.29 in 10.0 mi Calm Calm - N/A   Clear
7:35 AM 17.6 °F - -0.6 °F 45% 30.29 in 10.0 mi Calm Calm - N/A   Clear
7:55 AM 20.5 °F - 0.1 °F 41% 30.29 in 10.0 mi Calm Calm - N/A   Clear
8:15 AM 23.4 °F 18.9 °F -2.4 °F 33% 30.29 in 10.0 mi West 3.5 mph - N/A   Clear
8:35 AM 24.8 °F - -3.1 °F 30% 30.27 in 10.0 mi Calm Calm - N/A   Clear
8:55 AM 25.5 °F 19.9 °F -2.4 °F 30% 30.26 in 10.0 mi North 4.6 mph - N/A   Clear
9:15 AM 26.6 °F 21.2 °F -2.0 °F 29% 30.25 in 10.0 mi NNW 4.6 mph - N/A   Clear
9:55 AM 30.9 °F 25.2 °F -0.6 °F 26% 30.22 in 10.0 mi North 5.8 mph - N/A   Clear
10:15 AM 33.1 °F 28.7 °F -1.3 °F 23% 30.20 in 10.0 mi North 4.6 mph - N/A   Clear
10:55 AM 39.6 °F 36.3 °F -0.9 °F 18% 30.18 in 10.0 mi ENE 4.6 mph - N/A   Clear
11:15 AM 43.3 °F 40.7 °F -0.4 °F 16% 30.16 in 10.0 mi South 4.6 mph - N/A   Clear
11:35 AM 50.2 °F - 6.6 °F 17% 30.15 in 10.0 mi SSW 18.4 mph 27.6 mph N/A   Clear
11:55 AM 50.9 °F - 7.2 °F 17% 30.14 in 10.0 mi SW 17.3 mph 27.6 mph N/A   Clear
12:35 PM 54.5 °F - 8.4 °F 16% 30.11 in 10.0 mi SW 10.4 mph 21.9 mph N/A   Clear
12:55 PM 53.8 °F - 8.4 °F 16% 30.11 in 10.0 mi SSW 18.4 mph 26.5 mph N/A   Clear
1:15 PM 54.0 °F - 9.3 °F 17% 30.10 in 10.0 mi SSW 15.0 mph 21.9 mph N/A   Mostly Cloudy
1:35 PM 52.5 °F - 10.8 °F 19% 30.09 in 10.0 mi SW 18.4 mph 28.8 mph N/A   Mostly Cloudy
1:55 PM 52.7 °F - 12.6 °F 20% 30.09 in 10.0 mi WSW 10.4 mph 24.2 mph N/A   Overcast
2:15 PM 52.0 °F - 13.1 °F 21% 30.07 in 10.0 mi SW 13.8 mph 27.6 mph N/A   Overcast
2:35 PM 51.4 °F - 13.8 °F 22% 30.07 in 10.0 mi WSW 18.4 mph 27.6 mph N/A   Overcast
2:55 PM 51.8 °F - 14.7 °F 23% 30.07 in 10.0 mi West 17.3 mph 32.2 mph N/A   Overcast
3:15 PM 52.3 °F - 15.6 °F 23% 30.05 in 10.0 mi West 21.9 mph 38.0 mph N/A   Mostly Cloudy
3:35 PM 53.6 °F - 16.3 °F 23% 30.05 in 10.0 mi West 18.4 mph 39.1 mph N/A   Mostly Cloudy
3:55 PM 51.4 °F - 17.2 °F 26% 30.06 in 10.0 mi West 20.7 mph 40.3 mph N/A   Overcast
4:15 PM 50.4 °F - 19.4 °F 30% 30.04 in 10.0 mi West 23.0 mph 36.8 mph N/A   Mostly Cloudy
4:35 PM 50.4 °F - 19.4 °F 30% 30.04 in 10.0 mi West 21.9 mph 32.2 mph N/A   Scattered Clouds
4:55 PM 48.7 °F - 19.9 °F 32% 30.04 in 10.0 mi SW 23.0 mph 39.1 mph N/A   Clear
5:15 PM 48.2 °F - 21.7 °F 35% 30.04 in 10.0 mi WSW 17.3 mph 27.6 mph N/A   Clear
5:35 PM 46.6 °F - 22.8 °F 39% 30.03 in 10.0 mi West 19.6 mph 25.3 mph N/A   Clear
5:55 PM 45.7 °F 38.3 °F 23.0 °F 41% 30.03 in 10.0 mi WSW 18.4 mph 33.4 mph N/A   Clear
6:15 PM 45.5 °F 37.3 °F 23.9 °F 43% 30.02 in 10.0 mi WSW 21.9 mph 28.8 mph N/A   Clear
6:55 PM 44.8 °F 36.9 °F 23.9 °F 44% 30.01 in 10.0 mi WSW 19.6 mph 29.9 mph N/A   Clear
7:15 PM 44.2 °F 35.7 °F 23.9 °F 45% 30.00 in 10.0 mi WSW 21.9 mph 33.4 mph N/A   Clear
7:35 PM 44.1 °F 35.2 °F 24.8 °F 47% 30.00 in 10.0 mi WSW 23.0 mph 33.4 mph N/A   Clear
7:55 PM 43.7 °F 34.3 °F 25.7 °F 49% 30.00 in 10.0 mi WSW 25.3 mph 32.2 mph N/A   Clear
8:15 PM 43.3 °F 35.2 °F 25.7 °F 50% 29.99 in 10.0 mi WSW 18.4 mph 28.8 mph N/A   Clear
8:35 PM 43.0 °F 34.8 °F 25.7 °F 51% 29.99 in 10.0 mi WSW 18.4 mph 25.3 mph N/A   Clear
8:55 PM 43.5 °F 34.5 °F 25.2 °F 48% 29.98 in 10.0 mi WSW 23.0 mph 27.6 mph N/A   Clear
9:15 PM 43.7 °F 35.7 °F 25.3 °F 48% 29.98 in 10.0 mi WSW 18.4 mph 25.3 mph N/A   Clear
9:35 PM 43.3 °F 34.7 °F 25.7 °F 50% 29.98 in 10.0 mi WSW 20.7 mph 29.9 mph N/A   Clear
9:55 PM 43.2 °F 33.8 °F 25.7 °F 50% 29.97 in 10.0 mi WSW 24.2 mph 29.9 mph N/A   Clear
10:15 PM 43.0 °F 35.1 °F 25.3 °F 50% 29.98 in 10.0 mi WSW 17.3 mph 25.3 mph N/A   Clear
10:35 PM 43.2 °F 36.2 °F 24.8 °F 48% 29.97 in 10.0 mi SW 13.8 mph 29.9 mph N/A   Clear
10:55 PM 43.0 °F 36.0 °F 24.8 °F 49% 29.97 in 10.0 mi WSW 13.8 mph 23.0 mph N/A   Clear
11:15 PM 42.8 °F 36.6 °F 24.8 °F 49% 29.96 in 10.0 mi WSW 11.5 mph 23.0 mph N/A   Scattered Clouds
11:35 PM 43.0 °F 34.8 °F 24.8 °F 49% 29.95 in 10.0 mi WSW 18.4 mph 29.9 mph N/A   Clear
11:55 PM 42.4 °F 36.5 °F 24.8 °F 50% 29.95 in 10.0 mi WNW 10.4 mph 18.4 mph N/A   Clear